contact:dominique.lefevre@mio.osupytheas.fr, maurice.libes@osupytheas.fr, didier.mallarino@osupytheas.fr
Project:EMSO http://www.emso-fr.org/EMSO-France
Depth: 2436.0 m
Title:EMSO Ligure Ouest : Data MII capteur MICROCAT
DateTime_Computer,Latitude,Longitude,Temperature,Conductivity,Pressure,DateTime_Instrument
DateTime_Computer,Latitude,Longitude,degC,S m-1,dbar,DateTime_Instrument
2020-11-28T00:01:43Z,42.805,6.029,13.2978,4.59980,2470.227,2020-11-28T02:02:40Z
2020-11-28T00:04:46Z,42.805,6.029,13.2979,4.59980,2470.156,2020-11-28T02:05:43Z
2020-11-28T00:07:49Z,42.805,6.029,13.2976,4.59980,2470.156,2020-11-28T02:08:46Z
2020-11-28T00:10:52Z,42.805,6.029,13.2976,4.59980,2470.189,2020-11-28T02:11:50Z
2020-11-28T00:13:55Z,42.805,6.029,13.2976,4.59981,2470.171,2020-11-28T02:14:53Z
2020-11-28T00:16:58Z,42.805,6.029,13.2977,4.59981,2470.156,2020-11-28T02:17:56Z
2020-11-28T00:20:01Z,42.805,6.029,13.2982,4.59981,2470.133,2020-11-28T02:20:59Z
2020-11-28T00:23:05Z,42.805,6.029,13.2976,4.59980,2470.18,2020-11-28T02:24:02Z
2020-11-28T00:26:08Z,42.805,6.029,13.2979,4.59980,2470.171,2020-11-28T02:27:05Z
2020-11-28T00:29:11Z,42.805,6.029,13.2979,4.59980,2470.156,2020-11-28T02:30:08Z
2020-11-28T00:32:14Z,42.805,6.029,13.2978,4.59981,2470.18,2020-11-28T02:33:11Z
2020-11-28T00:35:17Z,42.805,6.029,13.2979,4.59980,2470.133,2020-11-28T02:36:15Z
2020-11-28T00:38:20Z,42.805,6.029,13.2980,4.59980,2470.203,2020-11-28T02:39:18Z
2020-11-28T00:41:23Z,42.805,6.029,13.2978,4.59980,2470.18,2020-11-28T02:42:21Z
2020-11-28T00:44:26Z,42.805,6.029,13.2982,4.59980,2470.18,2020-11-28T02:45:24Z
2020-11-28T00:47:30Z,42.805,6.029,13.2976,4.59981,2470.171,2020-11-28T02:48:27Z
2020-11-28T00:50:33Z,42.805,6.029,13.2981,4.59981,2470.156,2020-11-28T02:51:30Z
2020-11-28T00:53:36Z,42.805,6.029,13.2977,4.59981,2470.171,2020-11-28T02:54:33Z
2020-11-28T00:56:39Z,42.805,6.029,13.2977,4.59980,2470.18,2020-11-28T02:57:36Z
2020-11-28T00:59:42Z,42.805,6.029,13.2979,4.59980,2470.194,2020-11-28T03:00:40Z
2020-11-28T01:02:45Z,42.805,6.029,13.2976,4.59980,2470.156,2020-11-28T03:03:43Z
2020-11-28T01:05:48Z,42.805,6.029,13.2976,4.59980,2470.133,2020-11-28T03:06:46Z
2020-11-28T01:08:51Z,42.805,6.029,13.2976,4.59979,2470.194,2020-11-28T03:09:49Z
2020-11-28T01:11:55Z,42.805,6.029,13.2976,4.59981,2470.171,2020-11-28T03:12:52Z
2020-11-28T01:14:58Z,42.805,6.029,13.2980,4.59980,2470.18,2020-11-28T03:15:55Z
2020-11-28T01:18:01Z,42.805,6.029,13.2974,4.59980,2470.194,2020-11-28T03:18:58Z
2020-11-28T01:21:04Z,42.805,6.029,13.2978,4.59979,2470.18,2020-11-28T03:22:01Z
2020-11-28T01:24:07Z,42.805,6.029,13.2976,4.59979,2470.203,2020-11-28T03:25:04Z
2020-11-28T01:27:10Z,42.805,6.029,13.2975,4.59980,2470.194,2020-11-28T03:28:08Z
2020-11-28T01:30:13Z,42.805,6.029,13.2977,4.59980,2470.194,2020-11-28T03:31:11Z
2020-11-28T01:33:16Z,42.805,6.029,13.2977,4.59980,2470.18,2020-11-28T03:34:14Z
2020-11-28T01:36:19Z,42.805,6.029,13.2978,4.59980,2470.156,2020-11-28T03:37:17Z
2020-11-28T01:39:23Z,42.805,6.029,13.2976,4.59981,2470.18,2020-11-28T03:40:20Z
2020-11-28T01:42:26Z,42.805,6.029,13.2976,4.59979,2470.18,2020-11-28T03:43:23Z
2020-11-28T01:45:29Z,42.805,6.029,13.2976,4.59981,2470.18,2020-11-28T03:46:26Z
2020-11-28T01:48:32Z,42.805,6.029,13.2977,4.59979,2470.166,2020-11-28T03:49:29Z
2020-11-28T01:51:35Z,42.805,6.029,13.2975,4.59980,2470.227,2020-11-28T03:52:33Z
2020-11-28T01:54:38Z,42.805,6.029,13.2979,4.59980,2470.18,2020-11-28T03:55:36Z
2020-11-28T01:57:41Z,42.805,6.029,13.2972,4.59980,2470.203,2020-11-28T03:58:39Z
2020-11-28T02:00:44Z,42.805,6.029,13.2979,4.59980,2470.203,2020-11-28T04:01:42Z
2020-11-28T02:03:48Z,42.805,6.029,13.2977,4.59980,2470.24,2020-11-28T04:04:45Z
2020-11-28T02:06:51Z,42.805,6.029,13.2974,4.59979,2470.156,2020-11-28T04:07:48Z
2020-11-28T02:09:54Z,42.805,6.029,13.2975,4.59980,2470.203,2020-11-28T04:10:51Z
2020-11-28T02:12:57Z,42.805,6.029,13.2974,4.59980,2470.227,2020-11-28T04:13:54Z
2020-11-28T02:16:00Z,42.805,6.029,13.2978,4.59979,2470.227,2020-11-28T04:16:58Z
2020-11-28T02:19:03Z,42.805,6.029,13.2980,4.59981,2470.203,2020-11-28T04:20:01Z
2020-11-28T02:22:06Z,42.805,6.029,13.2980,4.59981,2470.24,2020-11-28T04:23:04Z
2020-11-28T02:25:09Z,42.805,6.029,13.2977,4.59980,2470.25,2020-11-28T04:26:07Z
2020-11-28T02:28:13Z,42.805,6.029,13.2977,4.59981,2470.227,2020-11-28T04:29:10Z
2020-11-28T02:31:16Z,42.805,6.029,13.2974,4.59981,2470.203,2020-11-28T04:32:13Z
2020-11-28T02:34:19Z,42.805,6.029,13.2977,4.59979,2470.264,2020-11-28T04:35:16Z
2020-11-28T02:37:22Z,42.805,6.029,13.2975,4.59979,2470.203,2020-11-28T04:38:19Z
2020-11-28T02:40:25Z,42.805,6.029,13.2975,4.59979,2470.203,2020-11-28T04:41:23Z
2020-11-28T02:43:28Z,42.805,6.029,13.2974,4.59981,2470.25,2020-11-28T04:44:26Z
2020-11-28T02:46:31Z,42.805,6.029,13.2976,4.59980,2470.25,2020-11-28T04:47:29Z
2020-11-28T02:49:34Z,42.805,6.029,13.2982,4.59979,2470.217,2020-11-28T04:50:32Z
2020-11-28T02:52:38Z,42.805,6.029,13.2976,4.59979,2470.227,2020-11-28T04:53:35Z
2020-11-28T02:55:41Z,42.805,6.029,13.2979,4.59981,2470.25,2020-11-28T04:56:38Z
2020-11-28T02:58:44Z,42.805,6.029,13.2977,4.59979,2470.24,2020-11-28T04:59:41Z
2020-11-28T03:01:47Z,42.805,6.029,13.2979,4.59979,2470.227,2020-11-28T05:02:44Z
2020-11-28T03:04:50Z,42.805,6.029,13.2974,4.59979,2470.24,2020-11-28T05:05:48Z
2020-11-28T03:07:53Z,42.805,6.029,13.2977,4.59979,2470.287,2020-11-28T05:08:51Z
2020-11-28T03:10:56Z,42.805,6.029,13.2971,4.59980,2470.227,2020-11-28T05:11:54Z
2020-11-28T03:13:59Z,42.805,6.029,13.2975,4.59979,2470.264,2020-11-28T05:14:57Z
2020-11-28T03:17:03Z,42.805,6.029,13.2974,4.59981,2470.273,2020-11-28T05:18:00Z
2020-11-28T03:20:06Z,42.805,6.029,13.2975,4.59979,2470.273,2020-11-28T05:21:03Z
2020-11-28T03:23:09Z,42.805,6.029,13.2976,4.59979,2470.264,2020-11-28T05:24:06Z
2020-11-28T03:26:12Z,42.805,6.029,13.2976,4.59979,2470.25,2020-11-28T05:27:09Z
2020-11-28T03:29:15Z,42.805,6.029,13.2977,4.59979,2470.227,2020-11-28T05:30:13Z
2020-11-28T03:32:18Z,42.805,6.029,13.2978,4.59980,2470.287,2020-11-28T05:33:16Z
2020-11-28T03:35:21Z,42.805,6.029,13.2973,4.59979,2470.31,2020-11-28T05:36:19Z
2020-11-28T03:38:24Z,42.805,6.029,13.2977,4.59979,2470.287,2020-11-28T05:39:22Z
2020-11-28T03:41:27Z,42.805,6.029,13.2974,4.59979,2470.273,2020-11-28T05:42:25Z
2020-11-28T03:44:31Z,42.805,6.029,13.2978,4.59979,2470.273,2020-11-28T05:45:28Z
2020-11-28T03:47:34Z,42.805,6.029,13.2976,4.59978,2470.273,2020-11-28T05:48:31Z
2020-11-28T03:50:37Z,42.805,6.029,13.2974,4.59979,2470.273,2020-11-28T05:51:34Z
2020-11-28T03:53:40Z,42.805,6.029,13.2973,4.59979,2470.273,2020-11-28T05:54:38Z
2020-11-28T03:56:43Z,42.805,6.029,13.2974,4.59979,2470.273,2020-11-28T05:57:41Z
2020-11-28T03:59:46Z,42.805,6.029,13.2976,4.59979,2470.297,2020-11-28T06:00:44Z
2020-11-28T04:02:49Z,42.805,6.029,13.2981,4.59979,2470.273,2020-11-28T06:03:47Z
2020-11-28T04:05:52Z,42.805,6.029,13.2975,4.59979,2470.32,2020-11-28T06:06:50Z
2020-11-28T04:08:56Z,42.805,6.029,13.2973,4.59980,2470.297,2020-11-28T06:09:53Z
2020-11-28T04:11:59Z,42.805,6.029,13.2979,4.59979,2470.273,2020-11-28T06:12:56Z
2020-11-28T04:15:02Z,42.805,6.029,13.2976,4.59980,2470.287,2020-11-28T06:15:59Z
2020-11-28T04:18:05Z,42.805,6.029,13.2979,4.59980,2470.297,2020-11-28T06:19:02Z
2020-11-28T04:21:08Z,42.805,6.029,13.2976,4.59979,2470.357,2020-11-28T06:22:06Z
2020-11-28T04:24:11Z,42.805,6.029,13.2976,4.59980,2470.32,2020-11-28T06:25:09Z
2020-11-28T04:27:14Z,42.805,6.029,13.2977,4.59979,2470.31,2020-11-28T06:28:12Z
2020-11-28T04:30:17Z,42.805,6.029,13.2977,4.59979,2470.31,2020-11-28T06:31:15Z
2020-11-28T04:33:21Z,42.805,6.029,13.2969,4.59979,2470.273,2020-11-28T06:34:18Z
2020-11-28T04:36:24Z,42.805,6.029,13.2977,4.59979,2470.366,2020-11-28T06:37:21Z
2020-11-28T04:39:27Z,42.805,6.029,13.2976,4.59980,2470.343,2020-11-28T06:40:24Z
2020-11-28T04:42:30Z,42.805,6.029,13.2977,4.59979,2470.32,2020-11-28T06:43:27Z
2020-11-28T04:45:33Z,42.805,6.029,13.2978,4.59980,2470.32,2020-11-28T06:46:31Z
2020-11-28T04:48:36Z,42.805,6.029,13.2976,4.59979,2470.306,2020-11-28T06:49:34Z
2020-11-28T04:51:39Z,42.805,6.029,13.2975,4.59979,2470.343,2020-11-28T06:52:37Z
2020-11-28T04:54:42Z,42.805,6.029,13.2972,4.59980,2470.334,2020-11-28T06:55:40Z
2020-11-28T04:57:46Z,42.805,6.029,13.2979,4.59979,2470.297,2020-11-28T06:58:43Z
2020-11-28T05:00:49Z,42.805,6.029,13.2979,4.59979,2470.357,2020-11-28T07:01:46Z
2020-11-28T05:03:52Z,42.805,6.029,13.2974,4.59980,2470.32,2020-11-28T07:04:49Z
2020-11-28T05:06:55Z,42.805,6.029,13.2976,4.59980,2470.343,2020-11-28T07:07:52Z
2020-11-28T05:09:58Z,42.805,6.029,13.2978,4.59979,2470.32,2020-11-28T07:10:56Z
2020-11-28T05:13:01Z,42.805,6.029,13.2976,4.59979,2470.32,2020-11-28T07:13:59Z
2020-11-28T05:16:04Z,42.805,6.029,13.2975,4.59979,2470.343,2020-11-28T07:17:02Z
2020-11-28T05:19:07Z,42.805,6.029,13.2976,4.59979,2470.32,2020-11-28T07:20:05Z
2020-11-28T05:22:10Z,42.805,6.029,13.2974,4.59980,2470.32,2020-11-28T07:23:08Z
2020-11-28T05:25:14Z,42.805,6.029,13.2978,4.59979,2470.38,2020-11-28T07:26:11Z
2020-11-28T05:28:17Z,42.805,6.029,13.2979,4.59979,2470.343,2020-11-28T07:29:14Z
2020-11-28T05:31:20Z,42.805,6.029,13.2979,4.59979,2470.343,2020-11-28T07:32:17Z
2020-11-28T05:34:23Z,42.805,6.029,13.2976,4.59979,2470.357,2020-11-28T07:35:21Z
2020-11-28T05:37:26Z,42.805,6.029,13.2976,4.59979,2470.38,2020-11-28T07:38:24Z
2020-11-28T05:40:29Z,42.805,6.029,13.2976,4.59979,2470.357,2020-11-28T07:41:27Z
2020-11-28T05:43:32Z,42.805,6.029,13.2976,4.59979,2470.357,2020-11-28T07:44:30Z
2020-11-28T05:46:35Z,42.805,6.029,13.2978,4.59979,2470.32,2020-11-28T07:47:33Z
2020-11-28T05:49:39Z,42.805,6.029,13.2972,4.59979,2470.343,2020-11-28T07:50:36Z
2020-11-28T05:52:42Z,42.805,6.029,13.2973,4.59979,2470.38,2020-11-28T07:53:39Z
2020-11-28T05:55:45Z,42.805,6.029,13.2977,4.59979,2470.38,2020-11-28T07:56:42Z
2020-11-28T05:58:48Z,42.805,6.029,13.2975,4.59979,2470.32,2020-11-28T07:59:45Z
2020-11-28T06:01:51Z,42.805,6.029,13.2979,4.59979,2470.343,2020-11-28T08:02:49Z
2020-11-28T06:04:54Z,42.805,6.029,13.2973,4.59979,2470.32,2020-11-28T08:05:52Z
2020-11-28T06:07:57Z,42.805,6.029,13.2976,4.59979,2470.32,2020-11-28T08:08:55Z
2020-11-28T06:11:00Z,42.805,6.029,13.2979,4.59979,2470.357,2020-11-28T08:11:58Z
2020-11-28T06:14:04Z,42.805,6.029,13.2977,4.59979,2470.343,2020-11-28T08:15:01Z
2020-11-28T06:17:07Z,42.805,6.029,13.2979,4.59979,2470.357,2020-11-28T08:18:04Z
2020-11-28T06:20:10Z,42.805,6.029,13.2974,4.59979,2470.32,2020-11-28T08:21:07Z
2020-11-28T06:23:13Z,42.805,6.029,13.2974,4.59979,2470.343,2020-11-28T08:24:10Z
2020-11-28T06:26:16Z,42.805,6.029,13.2978,4.59979,2470.366,2020-11-28T08:27:14Z
2020-11-28T06:29:19Z,42.805,6.029,13.2978,4.59980,2470.357,2020-11-28T08:30:17Z
2020-11-28T06:32:22Z,42.805,6.029,13.2978,4.59979,2470.366,2020-11-28T08:33:20Z
2020-11-28T06:35:25Z,42.805,6.029,13.2977,4.59979,2470.366,2020-11-28T08:36:23Z
2020-11-28T06:38:29Z,42.805,6.029,13.2977,4.59980,2470.38,2020-11-28T08:39:26Z
2020-11-28T06:41:32Z,42.805,6.029,13.2979,4.59979,2470.366,2020-11-28T08:42:29Z
2020-11-28T06:44:35Z,42.805,6.029,13.2978,4.59979,2470.343,2020-11-28T08:45:32Z
2020-11-28T06:47:38Z,42.805,6.029,13.2974,4.59979,2470.357,2020-11-28T08:48:35Z
2020-11-28T06:50:41Z,42.805,6.029,13.2974,4.59979,2470.357,2020-11-28T08:51:39Z
2020-11-28T06:53:44Z,42.805,6.029,13.2972,4.59979,2470.32,2020-11-28T08:54:42Z
2020-11-28T06:56:47Z,42.805,6.029,13.2977,4.59980,2470.357,2020-11-28T08:57:45Z
2020-11-28T06:59:50Z,42.805,6.029,13.2974,4.59979,2470.366,2020-11-28T09:00:48Z
2020-11-28T07:02:53Z,42.805,6.029,13.2971,4.59979,2470.366,2020-11-28T09:03:51Z
2020-11-28T07:05:57Z,42.805,6.029,13.2975,4.59979,2470.357,2020-11-28T09:06:54Z
2020-11-28T07:09:00Z,42.805,6.029,13.2976,4.59979,2470.357,2020-11-28T09:09:57Z
2020-11-28T07:12:03Z,42.805,6.029,13.2978,4.59979,2470.334,2020-11-28T09:13:00Z
2020-11-28T07:15:06Z,42.805,6.029,13.2976,4.59979,2470.32,2020-11-28T09:16:04Z
2020-11-28T07:18:09Z,42.805,6.029,13.2979,4.59979,2470.32,2020-11-28T09:19:07Z
2020-11-28T07:21:12Z,42.805,6.029,13.2975,4.59979,2470.32,2020-11-28T09:22:10Z
2020-11-28T07:24:15Z,42.805,6.029,13.2982,4.59979,2470.343,2020-11-28T09:25:13Z
2020-11-28T07:27:18Z,42.805,6.029,13.2974,4.59979,2470.334,2020-11-28T09:28:16Z
2020-11-28T07:30:22Z,42.805,6.029,13.2976,4.59979,2470.334,2020-11-28T09:31:19Z
2020-11-28T07:33:25Z,42.805,6.029,13.2978,4.59979,2470.343,2020-11-28T09:34:22Z
2020-11-28T07:36:28Z,42.805,6.029,13.2975,4.59979,2470.343,2020-11-28T09:37:25Z
2020-11-28T07:39:31Z,42.805,6.029,13.2979,4.59980,2470.357,2020-11-28T09:40:29Z
2020-11-28T07:42:34Z,42.805,6.029,13.2975,4.59981,2470.334,2020-11-28T09:43:32Z
2020-11-28T07:45:37Z,42.805,6.029,13.2977,4.59979,2470.366,2020-11-28T09:46:35Z
2020-11-28T07:48:40Z,42.805,6.029,13.2971,4.59979,2470.297,2020-11-28T09:49:38Z
2020-11-28T07:51:43Z,42.805,6.029,13.2977,4.59980,2470.334,2020-11-28T09:52:41Z
2020-11-28T07:54:47Z,42.805,6.029,13.2976,4.59980,2470.366,2020-11-28T09:55:44Z
2020-11-28T07:57:50Z,42.805,6.029,13.2974,4.59979,2470.343,2020-11-28T09:58:47Z
2020-11-28T08:00:53Z,42.805,6.029,13.2977,4.59979,2470.343,2020-11-28T10:01:50Z
2020-11-28T08:03:56Z,42.805,6.029,13.2978,4.59979,2470.343,2020-11-28T10:04:53Z
2020-11-28T08:06:59Z,42.805,6.029,13.2976,4.59980,2470.334,2020-11-28T10:07:57Z
2020-11-28T08:10:02Z,42.805,6.029,13.2977,4.59981,2470.343,2020-11-28T10:11:00Z
2020-11-28T08:13:05Z,42.805,6.029,13.2976,4.59980,2470.31,2020-11-28T10:14:03Z
2020-11-28T08:16:08Z,42.805,6.029,13.2974,4.59979,2470.334,2020-11-28T10:17:06Z
2020-11-28T08:19:12Z,42.805,6.029,13.2977,4.59979,2470.357,2020-11-28T10:20:09Z
2020-11-28T08:22:15Z,42.805,6.029,13.2979,4.59979,2470.32,2020-11-28T10:23:12Z
2020-11-28T08:25:18Z,42.805,6.029,13.2977,4.59979,2470.287,2020-11-28T10:26:15Z
2020-11-28T08:28:21Z,42.805,6.029,13.2972,4.59980,2470.306,2020-11-28T10:29:19Z
2020-11-28T08:31:24Z,42.805,6.029,13.2979,4.59979,2470.32,2020-11-28T10:32:22Z
2020-11-28T08:34:27Z,42.805,6.029,13.2976,4.59979,2470.334,2020-11-28T10:35:25Z
2020-11-28T08:37:30Z,42.805,6.029,13.2979,4.59980,2470.32,2020-11-28T10:38:28Z
2020-11-28T08:40:33Z,42.805,6.029,13.2975,4.59979,2470.334,2020-11-28T10:41:31Z
2020-11-28T08:43:37Z,42.805,6.029,13.2974,4.59979,2470.32,2020-11-28T10:44:34Z
2020-11-28T08:46:40Z,42.805,6.029,13.2975,4.59979,2470.297,2020-11-28T10:47:37Z
2020-11-28T08:49:43Z,42.805,6.029,13.2976,4.59979,2470.297,2020-11-28T10:50:40Z
2020-11-28T08:52:46Z,42.805,6.029,13.2975,4.59978,2470.287,2020-11-28T10:53:44Z
2020-11-28T08:55:49Z,42.805,6.029,13.2976,4.59979,2470.31,2020-11-28T10:56:47Z
2020-11-28T08:58:52Z,42.805,6.029,13.2979,4.59979,2470.32,2020-11-28T10:59:50Z
2020-11-28T09:01:55Z,42.805,6.029,13.2977,4.59979,2470.297,2020-11-28T11:02:53Z
2020-11-28T09:04:58Z,42.805,6.029,13.2979,4.59979,2470.287,2020-11-28T11:05:56Z
2020-11-28T09:08:02Z,42.805,6.029,13.2977,4.59978,2470.297,2020-11-28T11:08:59Z
2020-11-28T09:11:05Z,42.805,6.029,13.2978,4.59979,2470.297,2020-11-28T11:12:02Z
2020-11-28T09:14:08Z,42.805,6.029,13.2976,4.59979,2470.287,2020-11-28T11:15:05Z
2020-11-28T09:17:11Z,42.805,6.029,13.2976,4.59979,2470.297,2020-11-28T11:18:09Z
2020-11-28T09:20:14Z,42.805,6.029,13.2982,4.59980,2470.273,2020-11-28T11:21:12Z
2020-11-28T09:23:17Z,42.805,6.029,13.2976,4.59979,2470.287,2020-11-28T11:24:15Z
2020-11-28T09:26:20Z,42.805,6.029,13.2977,4.59979,2470.31,2020-11-28T11:27:18Z
2020-11-28T09:29:23Z,42.805,6.029,13.2974,4.59980,2470.273,2020-11-28T11:30:21Z
2020-11-28T09:32:27Z,42.805,6.029,13.2979,4.59979,2470.31,2020-11-28T11:33:24Z
2020-11-28T09:35:30Z,42.805,6.029,13.2980,4.59979,2470.297,2020-11-28T11:36:27Z
2020-11-28T09:38:33Z,42.805,6.029,13.2976,4.59979,2470.273,2020-11-28T11:39:30Z
2020-11-28T09:41:36Z,42.805,6.029,13.2979,4.59979,2470.287,2020-11-28T11:42:34Z
2020-11-28T09:44:39Z,42.805,6.029,13.2980,4.59980,2470.264,2020-11-28T11:45:37Z
2020-11-28T09:47:42Z,42.805,6.029,13.2975,4.59979,2470.31,2020-11-28T11:48:40Z
2020-11-28T09:50:45Z,42.805,6.029,13.2976,4.59980,2470.273,2020-11-28T11:51:43Z
2020-11-28T09:53:49Z,42.805,6.029,13.2978,4.59979,2470.264,2020-11-28T11:54:46Z
2020-11-28T09:56:52Z,42.805,6.029,13.2976,4.59978,2470.273,2020-11-28T11:57:49Z
2020-11-28T09:59:55Z,42.805,6.029,13.2975,4.59980,2470.273,2020-11-28T12:00:52Z
2020-11-28T10:02:58Z,42.805,6.029,13.2976,4.59981,2470.297,2020-11-28T12:03:55Z
2020-11-28T10:06:01Z,42.805,6.029,13.2974,4.59980,2470.264,2020-11-28T12:06:59Z
2020-11-28T10:09:04Z,42.805,6.029,13.2976,4.59979,2470.25,2020-11-28T12:10:02Z
2020-11-28T10:12:07Z,42.805,6.029,13.2979,4.59979,2470.264,2020-11-28T12:13:05Z
2020-11-28T10:15:10Z,42.805,6.029,13.2976,4.59978,2470.264,2020-11-28T12:16:08Z
2020-11-28T10:18:13Z,42.805,6.029,13.2979,4.59979,2470.273,2020-11-28T12:19:11Z
2020-11-28T10:21:17Z,42.805,6.029,13.2977,4.59979,2470.273,2020-11-28T12:22:14Z
2020-11-28T10:24:20Z,42.805,6.029,13.2975,4.59979,2470.264,2020-11-28T12:25:17Z
2020-11-28T10:27:23Z,42.805,6.029,13.2978,4.59979,2470.264,2020-11-28T12:28:20Z
2020-11-28T10:30:26Z,42.805,6.029,13.2974,4.59979,2470.227,2020-11-28T12:31:24Z
2020-11-28T10:33:29Z,42.805,6.029,13.2977,4.59979,2470.25,2020-11-28T12:34:27Z
2020-11-28T10:36:32Z,42.805,6.029,13.2979,4.59978,2470.287,2020-11-28T12:37:30Z
2020-11-28T10:39:35Z,42.805,6.029,13.2976,4.59979,2470.227,2020-11-28T12:40:33Z
2020-11-28T10:42:38Z,42.805,6.029,13.2977,4.59980,2470.227,2020-11-28T12:43:36Z
2020-11-28T10:45:42Z,42.805,6.029,13.2975,4.59978,2470.24,2020-11-28T12:46:39Z
2020-11-28T10:48:45Z,42.805,6.029,13.2978,4.59978,2470.25,2020-11-28T12:49:42Z
2020-11-28T10:51:48Z,42.805,6.029,13.2980,4.59979,2470.25,2020-11-28T12:52:45Z
2020-11-28T10:54:51Z,42.805,6.029,13.2976,4.59979,2470.24,2020-11-28T12:55:49Z
2020-11-28T10:57:54Z,42.805,6.029,13.2975,4.59978,2470.24,2020-11-28T12:58:52Z
2020-11-28T11:00:57Z,42.805,6.029,13.2981,4.59979,2470.264,2020-11-28T13:01:55Z
2020-11-28T11:04:00Z,42.805,6.029,13.2977,4.59979,2470.227,2020-11-28T13:04:58Z
2020-11-28T11:07:04Z,42.805,6.029,13.2975,4.59978,2470.264,2020-11-28T13:08:01Z
2020-11-28T11:10:07Z,42.805,6.029,13.2976,4.59978,2470.217,2020-11-28T13:11:04Z
2020-11-28T11:13:10Z,42.805,6.029,13.2974,4.59979,2470.227,2020-11-28T13:14:07Z
2020-11-28T11:16:13Z,42.805,6.029,13.2979,4.59979,2470.227,2020-11-28T13:17:10Z
2020-11-28T11:19:16Z,42.805,6.029,13.2976,4.59979,2470.264,2020-11-28T13:20:14Z
2020-11-28T11:22:19Z,42.805,6.029,13.2974,4.59978,2470.25,2020-11-28T13:23:17Z
2020-11-28T11:25:22Z,42.805,6.029,13.2974,4.59979,2470.227,2020-11-28T13:26:20Z
2020-11-28T11:28:25Z,42.805,6.029,13.2977,4.59978,2470.213,2020-11-28T13:29:23Z
2020-11-28T11:31:29Z,42.805,6.029,13.2976,4.59979,2470.24,2020-11-28T13:32:26Z
2020-11-28T11:34:32Z,42.805,6.029,13.2974,4.59980,2470.24,2020-11-28T13:35:29Z
2020-11-28T11:37:35Z,42.805,6.029,13.2980,4.59979,2470.203,2020-11-28T13:38:32Z
2020-11-28T11:40:38Z,42.805,6.029,13.2976,4.59978,2470.227,2020-11-28T13:41:36Z
2020-11-28T11:43:41Z,42.805,6.029,13.2977,4.59980,2470.24,2020-11-28T13:44:39Z
2020-11-28T11:46:44Z,42.805,6.029,13.2977,4.59979,2470.227,2020-11-28T13:47:42Z
2020-11-28T11:49:47Z,42.805,6.029,13.2979,4.59978,2470.227,2020-11-28T13:50:45Z
2020-11-28T11:52:50Z,42.805,6.029,13.2974,4.59980,2470.213,2020-11-28T13:53:48Z
2020-11-28T11:55:54Z,42.805,6.029,13.2975,4.59979,2470.203,2020-11-28T13:56:51Z
2020-11-28T11:58:57Z,42.805,6.029,13.2977,4.59978,2470.18,2020-11-28T13:59:54Z
2020-11-28T12:02:00Z,42.805,6.029,13.2975,4.59979,2470.203,2020-11-28T14:02:57Z
2020-11-28T12:05:03Z,42.805,6.029,13.2979,4.59979,2470.227,2020-11-28T14:06:01Z
2020-11-28T12:08:06Z,42.805,6.029,13.2978,4.59978,2470.203,2020-11-28T14:09:04Z
2020-11-28T12:11:09Z,42.805,6.029,13.2976,4.59979,2470.203,2020-11-28T14:12:07Z
2020-11-28T12:14:12Z,42.805,6.029,13.2974,4.59978,2470.227,2020-11-28T14:15:10Z
2020-11-28T12:17:15Z,42.805,6.029,13.2973,4.59979,2470.217,2020-11-28T14:18:13Z
2020-11-28T12:20:19Z,42.805,6.029,13.2977,4.59978,2470.203,2020-11-28T14:21:16Z
2020-11-28T12:23:22Z,42.805,6.029,13.2976,4.59979,2470.227,2020-11-28T14:24:19Z
2020-11-28T12:26:25Z,42.805,6.029,13.2980,4.59978,2470.18,2020-11-28T14:27:22Z
2020-11-28T12:29:28Z,42.805,6.029,13.2976,4.59979,2470.203,2020-11-28T14:30:26Z
2020-11-28T12:32:31Z,42.805,6.029,13.2973,4.59979,2470.203,2020-11-28T14:33:29Z
2020-11-28T12:35:34Z,42.805,6.029,13.2974,4.59978,2470.227,2020-11-28T14:36:32Z
2020-11-28T12:38:37Z,42.805,6.029,13.2979,4.59978,2470.227,2020-11-28T14:39:35Z
2020-11-28T12:41:41Z,42.805,6.029,13.2978,4.59978,2470.203,2020-11-28T14:42:38Z
2020-11-28T12:44:44Z,42.805,6.029,13.2976,4.59979,2470.203,2020-11-28T14:45:41Z
2020-11-28T12:47:47Z,42.805,6.029,13.2974,4.59979,2470.227,2020-11-28T14:48:44Z
2020-11-28T12:50:50Z,42.805,6.029,13.2975,4.59979,2470.217,2020-11-28T14:51:47Z
2020-11-28T12:53:53Z,42.805,6.029,13.2978,4.59979,2470.203,2020-11-28T14:54:51Z
2020-11-28T12:56:56Z,42.805,6.029,13.2974,4.59979,2470.203,2020-11-28T14:57:54Z
2020-11-28T12:59:59Z,42.805,6.029,13.2979,4.59978,2470.264,2020-11-28T15:00:57Z
2020-11-28T13:03:02Z,42.805,6.029,13.2977,4.59978,2470.194,2020-11-28T15:04:00Z
2020-11-28T13:06:06Z,42.805,6.029,13.2975,4.59979,2470.24,2020-11-28T15:07:03Z
2020-11-28T13:09:09Z,42.805,6.029,13.2980,4.59979,2470.171,2020-11-28T15:10:06Z
2020-11-28T13:12:12Z,42.805,6.029,13.2974,4.59979,2470.217,2020-11-28T15:13:09Z
2020-11-28T13:15:15Z,42.805,6.029,13.2977,4.59978,2470.227,2020-11-28T15:16:12Z
2020-11-28T13:18:18Z,42.805,6.029,13.2974,4.59979,2470.217,2020-11-28T15:19:16Z
2020-11-28T13:21:21Z,42.805,6.029,13.2979,4.59979,2470.264,2020-11-28T15:22:19Z
2020-11-28T13:24:24Z,42.805,6.029,13.2979,4.59979,2470.227,2020-11-28T15:25:22Z
2020-11-28T13:27:27Z,42.805,6.029,13.2977,4.59979,2470.24,2020-11-28T15:28:25Z
2020-11-28T13:30:31Z,42.805,6.029,13.2976,4.59981,2470.24,2020-11-28T15:31:28Z
2020-11-28T13:33:34Z,42.805,6.029,13.2976,4.59978,2470.264,2020-11-28T15:34:31Z
2020-11-28T13:36:37Z,42.805,6.029,13.2976,4.59979,2470.203,2020-11-28T15:37:34Z
2020-11-28T13:39:40Z,42.805,6.029,13.2979,4.59978,2470.227,2020-11-28T15:40:38Z
2020-11-28T13:42:43Z,42.805,6.029,13.2976,4.59978,2470.24,2020-11-28T15:43:41Z
2020-11-28T13:45:46Z,42.805,6.029,13.2978,4.59979,2470.25,2020-11-28T15:46:44Z
2020-11-28T13:48:49Z,42.805,6.029,13.2980,4.59979,2470.24,2020-11-28T15:49:47Z
2020-11-28T13:51:52Z,42.805,6.029,13.2978,4.59978,2470.24,2020-11-28T15:52:50Z
2020-11-28T13:54:56Z,42.805,6.029,13.2975,4.59979,2470.25,2020-11-28T15:55:53Z
2020-11-28T13:57:59Z,42.805,6.029,13.2980,4.59978,2470.227,2020-11-28T15:58:56Z
2020-11-28T14:01:02Z,42.805,6.029,13.2974,4.59979,2470.217,2020-11-28T16:01:59Z
2020-11-28T14:04:05Z,42.805,6.029,13.2976,4.59979,2470.227,2020-11-28T16:05:03Z
2020-11-28T14:07:08Z,42.805,6.029,13.2979,4.59979,2470.203,2020-11-28T16:08:06Z
2020-11-28T14:10:11Z,42.805,6.029,13.2976,4.59980,2470.227,2020-11-28T16:11:09Z
2020-11-28T14:13:14Z,42.805,6.029,13.2973,4.59979,2470.227,2020-11-28T16:14:12Z
2020-11-28T14:16:17Z,42.805,6.029,13.2976,4.59979,2470.264,2020-11-28T16:17:15Z
2020-11-28T14:19:21Z,42.805,6.029,13.2975,4.59981,2470.264,2020-11-28T16:20:18Z
2020-11-28T14:22:24Z,42.805,6.029,13.2978,4.59979,2470.25,2020-11-28T16:23:21Z
2020-11-28T14:25:27Z,42.805,6.029,13.2978,4.59978,2470.287,2020-11-28T16:26:24Z
2020-11-28T14:28:30Z,42.805,6.029,13.2976,4.59979,2470.227,2020-11-28T16:29:28Z
2020-11-28T14:31:33Z,42.805,6.029,13.2976,4.59978,2470.24,2020-11-28T16:32:31Z
2020-11-28T14:34:36Z,42.805,6.029,13.2976,4.59979,2470.264,2020-11-28T16:35:34Z
2020-11-28T14:37:39Z,42.805,6.029,13.2973,4.59980,2470.25,2020-11-28T16:38:37Z
2020-11-28T14:40:42Z,42.805,6.029,13.2976,4.59979,2470.25,2020-11-28T16:41:40Z
2020-11-28T14:43:46Z,42.805,6.029,13.2979,4.59980,2470.25,2020-11-28T16:44:43Z
2020-11-28T14:46:49Z,42.805,6.029,13.2978,4.59979,2470.25,2020-11-28T16:47:46Z
2020-11-28T14:49:52Z,42.805,6.029,13.2979,4.59978,2470.273,2020-11-28T16:50:49Z
2020-11-28T14:52:55Z,42.805,6.029,13.2977,4.59980,2470.287,2020-11-28T16:53:53Z
2020-11-28T14:55:58Z,42.805,6.029,13.2975,4.59979,2470.287,2020-11-28T16:56:56Z
2020-11-28T14:59:01Z,42.805,6.029,13.2976,4.59979,2470.227,2020-11-28T16:59:59Z
2020-11-28T15:02:04Z,42.805,6.029,13.2976,4.59980,2470.297,2020-11-28T17:03:02Z